Simultaneous Nadir Overpasses (SNOs) Predictions

Prediction of SNOs between GOES-16 and METOP-B Satellite Orbit:

Table of predicted SNOs for the next 14.0 days since TLE Epoch: 2/19/2022
Index Date Time (GOES-16) GOES-16 Lat,Lon METOP-B Lat,Lon Distance(km) Time Diff (sec)
1 02/19/2022 14:37:43 0.03, -75.23 0.33, -76.44 139.10 80
2 02/20/2022 14:14:24 0.03, -75.23 -0.80, -71.45 430.07 80
3 02/22/2022 02:36:04 -0.03, -75.21 -0.22, -76.05 96.13 80
4 02/23/2022 02:12:44 -0.03, -75.21 0.91, -71.06 472.97 80
5 02/24/2022 14:34:16 0.03, -75.24 0.10, -75.63 43.78 80
6 02/27/2022 02:32:36 -0.03, -75.22 -0.04, -75.22 0.64 80
7 03/01/2022 14:28:07 0.04, -75.27 -0.08, -74.80 53.79 80
8 03/03/2022 02:49:47 -0.04, -75.26 -0.97, -79.39 470.34 80
9 03/04/2022 02:26:27 -0.04, -75.28 0.16, -74.40 100.30 80
